Waarnemingen

Advertentie
Mijn weer
Trapani/Birgi, Italië (16429): temperatuur & dauwpunt: 19.02.2018 02:00:00 - 25.02.2018 02:00:00 (CET)Trapani/Birgi, Italië (16429): windsnelheid: 19.02.2018 02:00:00 - 25.02.2018 02:00:00 (CET)Trapani/Birgi, Italië (16429): windrichting: 19.02.2018 02:00:00 - 25.02.2018 02:00:00 (CET)Trapani/Birgi, Italië (16429): luchtdruk: 19.02.2018 02:00:00 - 25.02.2018 02:00:00 (CET)Trapani/Birgi, Italië (16429): zicht: 19.02.2018 02:00:00 - 25.02.2018 02:00:00 (CET)Trapani/Birgi, Italië (16429): Zonneschijnduur: 19.02.2018 02:00:00 - 25.02.2018 02:00:00 (CET)
Datum & Tijd tt [°C] td [°C] ff [km/u] ff [kn] dd ppp [hPa] vv [km] sd [min]
25.02.2018 02:00:00 9,2 7,8 11 6 OZO 1007,5 12 -
25.02.2018 01:00:00 9,4 8,3 11 6 OZO 1007,8 12 -
25.02.2018 00:00:00 9,4 7,8 5 3 OZO 1008,1 12 -
24.02.2018 23:00:00 9,4 8,2 11 6 ZO 1008,4 12 -
24.02.2018 22:00:00 8,8 7,1 13 7 OZO 1008,9 12 -
24.02.2018 21:00:00 9,0 7,4 9 5 OZO 1008,9 12 -
24.02.2018 20:00:00 9,2 7,8 11 6 OZO 1008,9 12 -
24.02.2018 19:00:00 10,2 8,3 9 5 ZO 1008,2 16 -
24.02.2018 18:00:00 11,2 9,1 9 5 Z 1008,1 20 30
24.02.2018 17:00:00 12,2 8,3 15 8 ZZW 1008,1 20 60
24.02.2018 16:00:00 13,4 9,1 16 9 ZZW 1008,1 22 60
24.02.2018 15:00:00 13,2 9,8 18 10 ZW 1008,1 20 60
24.02.2018 14:00:00 14,2 9,2 15 8 ZW 1008,1 22 60
24.02.2018 13:00:00 14,2 10,2 15 8 ZZW 1008,5 22 36
24.02.2018 12:00:00 12,4 8,9 18 10 ZW 1008,6 22 30
24.02.2018 11:00:00 13,4 7,6 21 11 W 1008,3 22 60
24.02.2018 10:00:00 13,0 8,5 22 12 W 1008,1 20 18
24.02.2018 09:00:00 11,8 7,9 18 10 W 1008,0 10 0
24.02.2018 08:00:00 11,2 7,3 18 10 W 1007,5 16 0
24.02.2018 07:00:00 10,0 5,8 26 14 W 1006,3 15 0
24.02.2018 06:00:00 10,0 5,8 22 12 W 1005,7 12 -
24.02.2018 05:00:00 10,2 6,9 16 9 W 1005,0 12 -
24.02.2018 04:00:00 10,0 5,8 34 18 W 1004,5 12 -
24.02.2018 03:00:00 10,0 5,8 31 17 W 1004,2 12 -
24.02.2018 02:00:00 10,0 7,1 35 19 W 1002,7 12 -
24.02.2018 01:00:00 10,0 7,1 34 18 W 1002,7 12 -
24.02.2018 00:00:00 10,0 8,1 24 13 W 1002,6 12 -
23.02.2018 23:00:00 10,0 6,7 16 9 W 1002,4 12 -
23.02.2018 22:00:00 9,0 5,8 13 7 W 1002,3 12 -
23.02.2018 21:00:00 9,8 6,2 18 10 W 1001,7 12 -
23.02.2018 20:00:00 10,2 6,0 24 13 W 1001,1 12 -
23.02.2018 19:00:00 10,2 7,3 21 11 NW 1000,3 12 -
23.02.2018 18:00:00 9,4 6,0 29 16 NW 999,8 16 0
23.02.2018 17:00:00 9,0 5,9 26 14 NW 999,4 12 0
23.02.2018 16:00:00 9,0 7,0 13 7 NNW 998,6 16 0
23.02.2018 15:00:00 9,2 6,5 18 10 NNW 998,8 10 0
23.02.2018 14:00:00 9,0 6,8 29 16 NW 998,4 9 0
23.02.2018 13:00:00 9,0 6,6 28 15 NW 997,9 8 0
23.02.2018 12:00:00 9,2 7,2 26 14 NW 997,8 7 0
23.02.2018 11:00:00 9,4 6,1 29 16 NNW 997,1 16 0
23.02.2018 10:00:00 9,0 6,6 31 17 NNW 997,1 16 0
23.02.2018 09:00:00 8,8 6,6 34 18 NW 997,1 7 0
23.02.2018 08:00:00 9,0 6,8 31 17 NNW 996,8 7 0
23.02.2018 07:00:00 9,0 6,8 24 13 N 997,8 8 0
23.02.2018 06:00:00 9,0 6,8 16 9 NNW 998,2 8 -
23.02.2018 05:00:00 9,0 6,6 4 2 N 999,0 12 -
23.02.2018 04:00:00 9,0 6,8 4 2 N 999,2 12 -
23.02.2018 03:00:00 9,0 6,8 5 3 NNO 1000,5 12 -
23.02.2018 02:00:00 9,0 6,8 5 3 NO 1000,7 12 -
23.02.2018 01:00:00 9,0 6,8 11 6 OZO 1001,7 12 -
23.02.2018 00:00:00 9,0 6,8 8 4 ZO 1001,7 12 -
22.02.2018 23:00:00 9,0 6,8 5 3 OZO 1001,8 12 -
22.02.2018 22:00:00 9,2 6,8 8 4 OZO 1001,7 10 -
22.02.2018 21:00:00 9,0 6,8 9 5 ZO 1002,0 12 0
22.02.2018 20:00:00 8,8 6,6 11 6 ZO 1001,9 12 -
22.02.2018 19:00:00 9,0 6,6 9 5 ZO 1001,6 12 -
22.02.2018 18:00:00 10,0 7,6 9 5 Z 1001,3 12 -
22.02.2018 17:00:00 10,8 8,4 8 4 Z 1001,0 12 0
22.02.2018 16:00:00 10,8 8,4 11 6 ZZO 1001,1 12 0
22.02.2018 15:00:00 10,0 7,6 5 3 ZZO 1001,0 12 0
22.02.2018 14:00:00 10,0 7,6 15 8 Z 1000,8 12 0
22.02.2018 13:00:00 9,0 6,6 15 8 ZZO 1000,7 12 0
22.02.2018 12:00:00 8,2 6,0 15 8 ZZO 1000,9 12 0
22.02.2018 11:00:00 7,8 6,1 18 10 Z 1000,8 4,0 0
22.02.2018 10:00:00 7,8 6,3 29 16 ZZW 1000,7 1,5 0
22.02.2018 09:00:00 11,2 9,0 37 20 ZZO 998,8 9 0
22.02.2018 08:00:00 9,0 7,4 29 16 ZO 999,0 7 0
22.02.2018 07:00:00 9,8 8,7 31 17 ZO 999,2 9 0
22.02.2018 06:00:00 9,6 7,2 31 17 ZO 999,6 12 -
22.02.2018 05:00:00 9,0 6,4 22 12 ZO 1000,1 12 -
22.02.2018 04:00:00 9,0 6,4 22 12 OZO 1001,2 12 -
22.02.2018 03:00:00 8,0 5,5 11 6 OZO 1002,9 12 -
22.02.2018 02:00:00 8,2 5,7 15 8 OZO 1003,0 12 -
22.02.2018 01:00:00 8,0 5,6 13 7 OZO 1003,1 12 -
22.02.2018 00:00:00 7,8 5,6 9 5 OZO 1003,4 12 -
21.02.2018 23:00:00 8,0 5,8 9 5 OZO 1003,4 12 -
21.02.2018 22:00:00 7,6 6,2 9 5 ZO 1003,4 12 -
21.02.2018 21:00:00 7,2 6,3 9 5 ZO 1003,4 12 -
21.02.2018 20:00:00 8,4 6,9 4 2 N 1002,3 12 -
21.02.2018 19:00:00 10,0 7,1 5 3 NNW 1002,7 12 0
21.02.2018 18:00:00 10,0 8,1 22 12 WNW 1002,5 20 0
21.02.2018 17:00:00 12,0 6,7 11 6 WNW 1002,1 20 12
21.02.2018 16:00:00 13,0 6,4 18 10 NW 1001,9 25 54
21.02.2018 15:00:00 13,4 6,7 22 12 WNW 1001,7 25 60
21.02.2018 14:00:00 12,0 7,3 11 6 NNW 1001,8 25 30
21.02.2018 13:00:00 12,4 7,7 21 11 NW 1001,8 25 60
21.02.2018 12:00:00 10,4 8,2 5 3 NW 1002,1 25 60
21.02.2018 11:00:00 12,2 7,3 18 10 NW 1001,6 25 60
21.02.2018 10:00:00 11,2 6,9 16 9 NNW 1001,4 25 48
21.02.2018 09:00:00 10,2 5,6 16 9 NNW 1000,7 25 0
21.02.2018 08:00:00 9,0 5,4 16 9 NNW 1000,4 22 12
21.02.2018 07:00:00 9,2 6,3 15 8 NNW 999,7 12 -
21.02.2018 06:00:00 8,8 5,5 13 7 NNW 999,8 12 -
21.02.2018 05:00:00 8,0 5,6 8 4 ZO 999,7 12 -
21.02.2018 04:00:00 8,2 5,7 9 5 ZO 999,7 12 -
21.02.2018 03:00:00 8,0 5,6 8 4 O 1000,2 12 -
21.02.2018 02:00:00 8,4 6,0 4 2 ONO 1000,7 12 -
21.02.2018 01:00:00 8,0 6,0 2 1 O 1001,1 12 -
21.02.2018 00:00:00 8,4 6,4 4 2 NNO 1001,2 12 -
20.02.2018 23:00:00 8,8 6,8 4 2 ZZO 1001,6 10 -
20.02.2018 22:00:00 8,8 6,9 9 5 ZZO 1002,2 10 -
20.02.2018 21:00:00 9,0 7,3 13 7 ZO 1002,4 12 -
20.02.2018 20:00:00 9,2 7,7 11 6 OZO 1003,2 10 -
20.02.2018 19:00:00 9,4 7,7 15 8 WZW 1004,0 9 -
20.02.2018 18:00:00 10,2 6,7 24 13 ZW 1004,1 9 -
20.02.2018 17:00:00 11,4 6,3 15 8 WZW 1004,6 20 0
20.02.2018 16:00:00 12,0 6,3 21 11 WZW 1005,5 20 48
20.02.2018 15:00:00 13,2 7,4 16 9 W 1006,2 20 48
20.02.2018 14:00:00 13,4 8,0 15 8 WNW 1007,1 20 60
20.02.2018 13:00:00 13,0 8,1 15 8 WNW 1007,6 20 60
20.02.2018 12:00:00 12,2 7,7 15 8 NNW 1008,7 20 48
20.02.2018 11:00:00 12,4 8,7 21 11 W 1009,1 20 60
20.02.2018 10:00:00 12,0 8,3 18 10 W 1009,1 16 0
20.02.2018 09:00:00 10,6 7,8 11 6 WZW 1009,7 12 0
20.02.2018 08:00:00 9,8 7,4 16 9 WZW 1009,7 9 0
20.02.2018 07:00:00 9,0 6,6 11 6 W 1009,5 12 0
20.02.2018 06:00:00 8,0 5,6 5 3 Z 1009,7 8 -
20.02.2018 05:00:00 8,0 5,8 9 5 ZO 1010,0 12 -
20.02.2018 04:00:00 8,0 6,5 8 4 OZO 1010,8 12 -
20.02.2018 03:00:00 8,0 6,5 8 4 OZO 1010,8 12 -
20.02.2018 02:00:00 8,0 6,8 8 4 ZO 1011,9 12 -
20.02.2018 01:00:00 8,0 6,8 5 3 OZO 1011,9 12 -
20.02.2018 00:00:00 8,2 7,6 4 2 ZZO 1012,0 12 -
19.02.2018 23:00:00 9,0 8,2 2 1 NNO 1012,3 12 -
19.02.2018 22:00:00 10,0 9,2 2 1 O 1012,6 12 -
19.02.2018 21:00:00 11,2 10,4 5 3 N 1012,5 12 -
19.02.2018 20:00:00 11,2 10,4 11 6 N 1012,5 12 -
19.02.2018 19:00:00 12,4 11,6 9 5 N 1012,6 14 -
19.02.2018 18:00:00 13,0 11,4 15 8 NW 1012,6 18 12
19.02.2018 17:00:00 13,2 11,6 16 9 NW 1012,3 20 48
19.02.2018 16:00:00 13,4 11,8 18 10 NW 1012,3 20 30
19.02.2018 15:00:00 13,8 12,0 18 10 NNW 1012,5 20 54
19.02.2018 14:00:00 14,2 10,2 13 7 WNW 1012,8 22 60
19.02.2018 13:00:00 14,4 9,2 15 8 NW 1013,2 20 60
19.02.2018 12:00:00 14,0 9,0 9 5 WNW 1013,3 10 60
19.02.2018 11:00:00 14,0 8,4 8 4 W 1012,8 20 60
19.02.2018 10:00:00 14,0 8,0 4 2 ZW 1012,4 22 60
19.02.2018 09:00:00 12,0 8,7 9 5 OZO 1013,5 20 30
19.02.2018 08:00:00 8,4 7,0 9 5 ZO 1013,4 18 0
19.02.2018 07:00:00 9,6 6,5 8 4 W 1013,1 18 0
19.02.2018 06:00:00 11,2 7,5 11 6 W 1013,2 15 -
19.02.2018 05:00:00 11,2 8,6 13 7 WNW 1013,2 12 -
19.02.2018 04:00:00 11,2 8,2 28 15 WNW 1013,6 12 -
19.02.2018 03:00:00 11,2 8,4 29 16 W 1014,0 12 -
19.02.2018 02:00:00 11,2 8,8 9 5 W 1014,1 12 -

tt = temperatuur
td = dauwpunt
ff = windsnelheid
dd = windrichting
ppp = luchtdruk
vv = zicht
sd = Zonneschijnduur

Weerstations in de omgeving